Weather History for PHNY - December, 2013

Change the Weather History Date:

Friday, December 13, 2013

  Actual Average (PHJH) Record (PHJH)
Temperature  
Mean Temperature 72 °F -  
Max Temperature 81 °F 77 °F 82 °F (1996)
Min Temperature 63 °F 67 °F 64 °F (2004)
Cooling Degree Days 7    
Growing Degree Days 22 (Base 50)    
Moisture  
Dew Point 65 °F    
Average Humidity 78    
Maximum Humidity 100    
Minimum Humidity 54    
Precipitation  
Precipitation 0.00 in - - ()
Sea Level Pressure  
Sea Level Pressure 30.04 in    
Wind  
Wind Speed 5 mph (ENE)    
Max Wind Speed 14 mph    
Max Gust Speed -    
Visibility 10 miles    
Events      
Averages and records for this station are not official NWS values.
T = Trace of Precipitation, MM = Missing Value Source: NWS Daily Summary

Daily Weather History Graph

Daily Weather History Graph

Search for Another Location

Airport or City:

Trip Planner

Search our weather history database for the weather conditions in past years. The results will help you decide how hot, cold, wet, or windy it might be!

Date:

Astronomy

Dec. 13, 2013 Rise Set
Actual Time 6:55 AM HST 5:48 PM HST
Civil Twilight 6:31 AM HST 6:12 PM HST
Nautical Twilight 6:03 AM HST 6:40 PM HST
Astronomical Twilight 5:36 AM HST 7:07 PM HST
Moon 3:23 PM HST (12/13) 3:46 AM HST (12/13)
Length of Visible Light 11h 41m
Length of Day
10h 53m
Waxing Gibbous, 89% of the Moon is Illuminated
Dec 13
Waxing Gibbous
Dec 16
Full
Dec 25
Last Quarter
Jan 1
New
Jan 7
First Quarter

Hourly Weather History & Observations

Time (HST) Temp. Heat Index Dew Point Humidity Pressure Visibility Wind Dir Wind Speed Gust Speed Precip Events Conditions
12:56 AM 65.8 °F - 65.8 °F 100% 30.04 in 10.0 mi Calm Calm - N/A   Clear
1:56 AM 64.9 °F - 64.9 °F 100% 30.04 in 10.0 mi NE 5.8 mph - N/A   Partly Cloudy
2:56 AM 64.9 °F - 64.9 °F 100% 30.01 in 10.0 mi East 8.1 mph - N/A   Partly Cloudy
3:56 AM 63.9 °F - 63.9 °F 100% 30.01 in 10.0 mi ENE 5.8 mph - N/A   Clear
4:56 AM 63.9 °F - 63.0 °F 97% 30.01 in 10.0 mi ENE 6.9 mph - N/A   Clear
5:56 AM 64.9 °F - 63.9 °F 96% 30.02 in 10.0 mi East 6.9 mph - N/A   Clear
6:56 AM 64.9 °F - 64.9 °F 100% 30.04 in 10.0 mi ESE 6.9 mph - N/A   Clear
7:56 AM 68.0 °F - 66.9 °F 96% 30.06 in 10.0 mi East 5.8 mph - N/A   Clear
8:56 AM 70.9 °F - 66.9 °F 87% 30.07 in 10.0 mi NNE 6.9 mph - N/A   Clear
9:23 AM 73.4 °F - 66.2 °F 78% 30.13 in 10.0 mi NE 4.6 mph - N/A   Mostly Cloudy
9:31 AM 73.4 °F - 64.4 °F 73% 30.14 in 10.0 mi East 3.5 mph - N/A   Scattered Clouds
9:56 AM 74.8 °F - 64.9 °F 71% 30.08 in 10.0 mi Calm Calm - N/A   Clear
10:23 AM 78.8 °F - 64.4 °F 61% 30.13 in 10.0 mi Calm Calm - N/A   Partly Cloudy
10:56 AM 77.9 °F - 63.9 °F 62% 30.05 in 10.0 mi East 3.5 mph - N/A   Clear
11:56 AM 81.9 °F 83.2 °F 63.9 °F 54% 30.02 in 10.0 mi Calm Calm - N/A   Clear
12:41 PM 80.6 °F 82.7 °F 66.2 °F 61% 30.07 in 10.0 mi Variable 3.5 mph - N/A   Mostly Cloudy
12:56 PM 77.9 °F - 64.9 °F 64% 30.00 in 10.0 mi SE 9.2 mph - N/A   Mostly Cloudy
1:05 PM 80.6 °F 82.3 °F 64.4 °F 58% 30.05 in 10.0 mi SE 12.7 mph - N/A   Scattered Clouds
1:56 PM 77.9 °F - 63.9 °F 62% 29.98 in 10.0 mi SE 9.2 mph - N/A   Clear
2:56 PM 77.9 °F - 64.9 °F 64% 29.97 in 10.0 mi Calm Calm - N/A   Partly Cloudy
3:39 PM 78.8 °F - 64.4 °F 61% 30.02 in 10.0 mi NNW 5.8 mph - N/A   Mostly Cloudy
3:56 PM 77.0 °F - 64.9 °F 66% 29.97 in 10.0 mi NNW 6.9 mph - N/A   Mostly Cloudy
4:17 PM 75.2 °F - 64.4 °F 69% 30.03 in 10.0 mi NW 8.1 mph - N/A   Partly Cloudy
4:46 PM 75.2 °F - 64.4 °F 69% 30.03 in 10.0 mi North 6.9 mph - N/A   Mostly Cloudy
4:56 PM 73.4 °F - 64.4 °F 73% 30.03 in 10.0 mi NNE 9.2 mph - N/A   Mostly Cloudy
5:06 PM 73.4 °F - 64.4 °F 73% 30.03 in 10.0 mi NNE 11.5 mph - N/A   Scattered Clouds
5:56 PM 72.0 °F - 64.9 °F 78% 30.01 in 10.0 mi NNE 13.8 mph - N/A   Clear
6:56 PM 70.9 °F - 64.9 °F 81% 30.02 in 10.0 mi NNE 12.7 mph - N/A   Clear
7:56 PM 70.0 °F - 64.9 °F 84% 30.04 in 10.0 mi NNE 12.7 mph - N/A   Clear
8:56 PM 68.9 °F - 63.9 °F 84% 30.04 in 10.0 mi ENE 8.1 mph - N/A   Clear
9:56 PM 68.9 °F - 63.0 °F 81% 30.04 in 10.0 mi NE 4.6 mph - N/A   Clear
10:56 PM 68.0 °F - 63.0 °F 84% 30.03 in 10.0 mi East 3.5 mph - N/A   Clear
11:56 PM 65.8 °F - 63.0 °F 90% 30.02 in 10.0 mi Calm Calm - N/A   Clear